TimeCST,TemperatureF,Dew PointF,Humidity,Sea Level PressureIn,VisibilityMPH,Wind Direction,Wind SpeedMPH,Gust SpeedMPH,PrecipitationIn,Events,Conditions,WindDirDegrees,DateUTC
12:15 AM,26.6,24.8,93,29.43,5.0,NW,8.1,-,N/A,,Overcast,320,2013-02-19 06:15:00
12:35 AM,26.6,26.6,100,29.42,4.0,NNW,10.4,23.0,N/A,,Overcast,330,2013-02-19 06:35:00
12:55 AM,26.6,24.8,93,29.43,5.0,NNW,13.8,20.7,N/A,,Overcast,330,2013-02-19 06:55:00
1:15 AM,26.6,24.8,93,29.42,5.0,North,13.8,19.6,N/A,Snow,Light Snow,350,2013-02-19 07:15:00
1:35 AM,26.6,24.8,93,29.43,2.5,North,21.9,28.8,N/A,Snow,Light Snow,350,2013-02-19 07:35:00
3:15 AM,19.4,15.8,86,29.47,0.8,NNW,11.5,19.6,N/A,Snow,Snow,340,2013-02-19 09:15:00
3:35 AM,19.4,14.0,80,29.47,1.2,NNW,15.0,27.6,N/A,Snow,Light Snow,340,2013-02-19 09:35:00
3:55 AM,17.6,14.0,86,29.47,1.2,North,20.7,28.8,N/A,Snow,Light Snow,350,2013-02-19 09:55:00
4:15 AM,17.6,14.0,86,29.48,1.0,NNW,15.0,27.6,N/A,Snow,Snow,340,2013-02-19 10:15:00
4:35 AM,17.6,12.2,79,29.48,1.8,NNW,16.1,27.6,N/A,Snow,Light Snow,330,2013-02-19 10:35:00
4:55 AM,15.8,12.2,86,29.49,1.2,NNW,11.5,17.3,N/A,Snow,Light Snow,330,2013-02-19 10:55:00
5:15 AM,14.0,10.4,86,29.51,1.5,NW,18.4,24.2,N/A,Snow,Light Snow,320,2013-02-19 11:15:00
5:35 AM,14.0,10.4,86,29.52,1.5,NW,17.3,23.0,N/A,Snow,Light Snow,320,2013-02-19 11:35:00
5:55 AM,14.0,10.4,86,29.53,1.8,NNW,12.7,24.2,N/A,Snow,Light Snow,330,2013-02-19 11:55:00
6:15 AM,14.0,8.6,79,29.54,2.0,NW,12.7,26.5,N/A,Snow,Light Snow,310,2013-02-19 12:15:00
6:35 AM,12.2,8.6,85,29.55,2.0,NNW,11.5,21.9,N/A,Snow,Light Snow,330,2013-02-19 12:35:00
6:55 AM,12.2,8.6,85,29.57,1.8,NW,10.4,23.0,N/A,Snow,Light Snow,320,2013-02-19 12:55:00
7:15 AM,12.2,8.6,85,29.58,0.5,NW,8.1,18.4,N/A,Snow,Snow,310,2013-02-19 13:15:00
7:35 AM,12.2,8.6,85,29.59,0.5,NW,11.5,18.4,N/A,Snow,Light Snow,320,2013-02-19 13:35:00
7:55 AM,12.2,8.6,85,29.60,1.2,NW,18.4,27.6,N/A,Snow,Light Snow,320,2013-02-19 13:55:00
8:15 AM,12.2,8.6,85,29.61,1.0,NW,13.8,24.2,N/A,Snow,Light Snow,320,2013-02-19 14:15:00
8:35 AM,12.2,6.8,79,29.62,1.2,NW,15.0,23.0,N/A,Snow,Light Snow,320,2013-02-19 14:35:00
8:55 AM,12.2,6.8,79,29.63,1.2,WNW,17.3,21.9,N/A,Snow,Light Snow,300,2013-02-19 14:55:00
9:15 AM,12.2,6.8,79,29.63,1.2,NW,12.7,17.3,N/A,Snow,Light Snow,320,2013-02-19 15:15:00
9:35 AM,12.2,6.8,79,29.64,0.8,NW,9.2,20.7,N/A,Snow,Light Snow,320,2013-02-19 15:35:00
9:55 AM,12.2,8.6,85,29.65,0.5,NNW,9.2,18.4,N/A,Snow,Light Snow,330,2013-02-19 15:55:00
10:15 AM,12.2,6.8,79,29.66,1.5,NNW,17.3,20.7,N/A,Snow,Light Snow,340,2013-02-19 16:15:00
10:35 AM,12.2,5.0,73,29.67,1.2,NNW,19.6,29.9,N/A,Snow,Light Snow,330,2013-02-19 16:35:00
10:55 AM,12.2,6.8,79,29.67,1.0,NNW,15.0,24.2,N/A,Snow,Light Snow,330,2013-02-19 16:55:00
11:15 AM,12.2,6.8,79,29.69,0.5,NNW,16.1,23.0,N/A,Snow,Light Snow,330,2013-02-19 17:15:00
11:35 AM,12.2,6.8,79,29.69,1.0,NW,16.1,23.0,N/A,Snow,Light Snow,310,2013-02-19 17:35:00
11:55 AM,12.2,5.0,73,29.70,2.0,NW,15.0,24.2,N/A,,Haze,310,2013-02-19 17:55:00
12:15 PM,12.2,5.0,73,29.71,1.0,NW,15.0,27.6,N/A,Snow,Light Snow,320,2013-02-19 18:15:00
12:35 PM,12.2,5.0,73,29.72,1.5,NW,15.0,25.3,N/A,,Haze,320,2013-02-19 18:35:00
12:55 PM,12.2,5.0,73,29.73,2.0,NNW,15.0,26.5,N/A,,Haze,330,2013-02-19 18:55:00
1:15 PM,12.2,5.0,73,29.74,1.0,NW,17.3,24.2,N/A,Snow,Light Snow,320,2013-02-19 19:15:00
1:35 PM,12.2,5.0,73,29.75,1.2,NNW,19.6,31.1,N/A,Snow,Light Snow,330,2013-02-19 19:35:00
1:55 PM,10.4,5.0,79,29.76,1.0,NW,11.5,24.2,N/A,Snow,Light Snow,310,2013-02-19 19:55:00
2:15 PM,10.4,3.2,73,29.77,1.8,NW,16.1,26.5,N/A,Snow,Light Snow,320,2013-02-19 20:15:00
2:35 PM,10.4,5.0,79,29.79,0.5,NW,19.6,24.2,N/A,Snow,Light Snow,310,2013-02-19 20:35:00
3:15 PM,10.4,1.4,67,29.81,1.8,NW,17.3,26.5,N/A,,Haze,310,2013-02-19 21:15:00
3:35 PM,8.6,3.2,79,29.83,2.0,WNW,12.7,24.2,N/A,,Haze,300,2013-02-19 21:35:00
3:55 PM,8.6,3.2,79,29.85,1.5,NW,15.0,19.6,N/A,Snow,Light Snow,310,2013-02-19 21:55:00
4:15 PM,8.6,1.4,73,29.86,1.5,NW,10.4,24.2,N/A,Snow,Light Snow,310,2013-02-19 22:15:00
4:35 PM,8.6,1.4,73,29.87,3.0,WNW,8.1,17.3,N/A,,Haze,300,2013-02-19 22:35:00
4:55 PM,8.6,1.4,73,29.88,5.0,WNW,10.4,20.7,N/A,,Haze,300,2013-02-19 22:55:00
5:15 PM,8.6,1.4,73,29.89,4.0,NW,13.8,20.7,N/A,Snow,Light Snow,310,2013-02-19 23:15:00
6:35 PM,8.6,3.2,79,29.92,4.0,NW,12.7,23.0,N/A,Snow,Light Snow,320,2013-02-20 00:35:00
6:55 PM,8.6,3.2,79,29.92,4.0,NNW,11.5,18.4,N/A,Snow,Light Snow,330,2013-02-20 00:55:00
7:15 PM,8.6,5.0,85,29.93,4.0,NNW,15.0,21.9,N/A,Snow,Light Snow,330,2013-02-20 01:15:00
7:35 PM,10.4,5.0,79,29.94,3.0,NW,13.8,24.2,N/A,Snow,Light Snow,320,2013-02-20 01:35:00
7:55 PM,10.4,5.0,79,29.94,3.0,NNW,15.0,21.9,N/A,Snow,Light Snow,330,2013-02-20 01:55:00
8:15 PM,10.4,5.0,79,29.95,2.5,NNW,13.8,26.5,N/A,,Haze,330,2013-02-20 02:15:00
8:35 PM,10.4,5.0,79,29.96,2.5,NW,12.7,20.7,N/A,Snow,Light Snow,320,2013-02-20 02:35:00
8:55 PM,10.4,5.0,79,29.97,2.5,NNW,11.5,20.7,N/A,Snow,Light Snow,330,2013-02-20 02:55:00
9:15 PM,10.4,5.0,79,29.98,2.5,NNW,12.7,18.4,N/A,Snow,Light Snow,330,2013-02-20 03:15:00
9:35 PM,10.4,5.0,79,29.98,2.5,NNW,13.8,21.9,N/A,Snow,Light Snow,340,2013-02-20 03:35:00
9:55 PM,10.4,5.0,79,29.99,2.5,North,16.1,26.5,N/A,Snow,Light Snow,350,2013-02-20 03:55:00
10:15 PM,10.4,5.0,79,30.00,2.0,NNW,13.8,18.4,N/A,Snow,Light Snow,340,2013-02-20 04:15:00
10:35 PM,10.4,5.0,79,30.01,2.0,NNW,16.1,23.0,N/A,Snow,Light Snow,330,2013-02-20 04:35:00
10:55 PM,8.6,5.0,85,30.02,3.0,NNW,11.5,19.6,N/A,Snow,Light Snow,340,2013-02-20 04:55:00
11:15 PM,10.4,5.0,79,30.03,2.5,NNW,15.0,24.2,N/A,Snow,Light Snow,340,2013-02-20 05:15:00
11:35 PM,10.4,3.2,73,30.04,3.0,NNW,15.0,25.3,N/A,Snow,Light Snow,340,2013-02-20 05:35:00
11:55 PM,10.4,3.2,73,30.05,3.0,North,21.9,28.8,N/A,Snow,Light Snow,350,2013-02-20 05:55:00